Time,TemperatureF,DewpointF,PressureIn,WindDirection,WindDirectionDegrees,WindSpeedMPH,WindSpeedGustMPH,Humidity,HourlyPrecipIn,Conditions,Clouds,dailyrainin,SoftwareType,DateUTC
2013-10-19 00:13:00,50.0,45.0,30.01,NNE,12,0.0,0.0,83,0.00,,,0.01,,2013-10-19 05:13:00,
2013-10-19 00:22:00,50.0,45.0,30.01,NNE,12,0.0,0.0,82,0.00,,,0.01,,2013-10-19 05:22:00,
2013-10-19 00:42:00,50.0,45.0,30.00,NNE,12,0.0,0.0,83,0.00,,,0.01,,2013-10-19 05:42:00,
2013-10-19 00:52:00,50.0,45.0,29.99,East,79,0.0,0.0,82,0.00,,,0.01,,2013-10-19 05:52:00,
2013-10-19 01:12:00,50.0,45.0,29.98,East,79,0.0,0.0,83,0.00,,,0.01,,2013-10-19 06:12:00,
2013-10-19 01:22:00,50.0,45.0,29.99,ENE,78,0.0,0.0,84,0.01,,,0.02,,2013-10-19 06:22:00,
2013-10-19 01:42:00,50.0,46.0,29.99,East,79,0.0,0.0,87,0.03,,,0.04,,2013-10-19 06:42:00,
2013-10-19 01:52:00,49.0,46.0,29.99,ENE,72,0.0,0.0,90,0.05,,,0.06,,2013-10-19 06:52:00,
2013-10-19 02:11:00,48.0,45.0,29.98,NNW,327,0.0,0.0,91,0.05,,,0.06,,2013-10-19 07:11:00,
2013-10-19 02:22:00,48.0,46.0,29.98,NW,305,0.0,2.0,92,0.04,,,0.06,,2013-10-19 07:22:00,
2013-10-19 02:42:00,48.0,46.0,29.98,NW,306,0.0,0.0,93,0.03,,,0.07,,2013-10-19 07:42:00,
2013-10-19 02:53:00,48.0,46.0,29.97,North,355,0.0,3.0,93,0.03,,,0.09,,2013-10-19 07:53:00,
2013-10-19 03:11:00,48.0,46.0,29.96,NNW,342,0.0,0.0,93,0.03,,,0.09,,2013-10-19 08:11:00,
2013-10-19 03:22:00,47.0,45.0,29.96,NW,320,0.0,2.0,94,0.04,,,0.10,,2013-10-19 08:22:00,
2013-10-19 03:42:00,47.0,45.0,29.95,NW,321,0.0,0.0,94,0.03,,,0.10,,2013-10-19 08:42:00,
2013-10-19 03:52:00,47.0,45.0,29.95,NW,321,0.0,0.0,94,0.02,,,0.11,,2013-10-19 08:52:00,
2013-10-19 04:11:00,47.0,45.0,29.94,NW,321,0.0,0.0,94,0.02,,,0.11,,2013-10-19 09:11:00,
2013-10-19 04:21:00,47.0,46.0,29.97,West,269,5.0,7.0,95,0.03,,,0.12,,2013-10-19 09:21:00,
2013-10-19 04:43:00,46.0,45.0,29.95,NNW,341,4.0,8.0,95,0.05,,,0.14,,2013-10-19 09:43:00,
2013-10-19 04:54:00,46.0,45.0,29.96,NW,307,4.0,8.0,95,0.05,,,0.15,,2013-10-19 09:54:00,
2013-10-19 05:13:00,46.0,45.0,29.96,NW,309,3.0,8.0,95,0.05,,,0.15,,2013-10-19 10:13:00,
2013-10-19 05:23:00,46.0,45.0,29.96,NW,309,3.0,8.0,95,0.05,,,0.15,,2013-10-19 10:23:00,
2013-10-19 05:42:00,46.0,45.0,29.96,NNW,335,3.0,7.0,95,0.03,,,0.15,,2013-10-19 10:42:00,
2013-10-19 05:53:00,45.0,44.0,29.96,NNW,348,4.0,8.0,95,0.02,,,0.16,,2013-10-19 10:53:00,
2013-10-19 06:12:00,45.0,44.0,29.97,NNW,340,5.0,13.0,95,0.01,,,0.16,,2013-10-19 11:12:00,
2013-10-19 06:22:00,45.0,44.0,29.97,NNW,333,3.0,7.0,95,0.02,,,0.17,,2013-10-19 11:22:00,
2013-10-19 06:42:00,45.0,44.0,29.98,NW,313,5.0,10.0,95,0.02,,,0.17,,2013-10-19 11:42:00,
2013-10-19 06:52:00,45.0,44.0,29.98,WNW,292,4.0,7.0,95,0.02,,,0.18,,2013-10-19 11:52:00,
2013-10-19 07:12:00,45.0,44.0,29.98,WNW,296,4.0,9.0,95,0.02,,,0.18,,2013-10-19 12:12:00,
2013-10-19 07:22:00,45.0,44.0,29.98,WNW,299,3.0,8.0,95,0.01,,,0.18,,2013-10-19 12:22:00,
2013-10-19 07:42:00,45.0,44.0,29.98,NNW,348,2.0,7.0,96,0.01,,,0.18,,2013-10-19 12:42:00,
2013-10-19 07:52:00,45.0,44.0,29.99,WNW,286,2.0,6.0,96,0.01,,,0.19,,2013-10-19 12:52:00,
2013-10-19 08:12:00,45.0,44.0,30.00,West,281,3.0,8.0,96,0.01,,,0.19,,2013-10-19 13:12:00,
2013-10-19 08:22:00,45.0,44.0,30.01,West,279,5.0,9.0,96,0.02,,,0.20,,2013-10-19 13:22:00,
2013-10-19 08:42:00,44.0,43.0,29.99,WNW,283,4.0,10.0,96,0.03,,,0.21,,2013-10-19 13:42:00,
2013-10-19 08:52:00,44.0,43.0,30.00,NNW,331,3.0,8.0,95,0.02,,,0.21,,2013-10-19 13:52:00,
2013-10-19 09:11:00,44.0,43.0,30.01,WNW,285,5.0,8.0,95,0.02,,,0.21,,2013-10-19 14:11:00,
2013-10-19 09:21:00,45.0,44.0,30.01,West,281,3.0,8.0,95,0.01,,,0.21,,2013-10-19 14:21:00,
2013-10-19 09:42:00,45.0,44.0,30.02,West,277,2.0,9.0,95,0.00,,,0.21,,2013-10-19 14:42:00,
2013-10-19 09:52:00,45.0,43.0,30.02,WNW,286,5.0,9.0,94,0.00,,,0.21,,2013-10-19 14:52:00,
2013-10-19 10:11:00,45.0,43.0,30.02,WNW,293,6.0,11.0,93,0.00,,,0.21,,2013-10-19 15:11:00,
2013-10-19 10:22:00,45.0,43.0,30.02,WNW,284,5.0,10.0,93,0.00,,,0.21,,2013-10-19 15:22:00,
2013-10-19 10:44:00,45.0,43.0,30.03,NW,326,6.0,9.0,92,0.00,,,0.21,,2013-10-19 15:44:00,
2013-10-19 10:55:00,45.0,43.0,30.03,West,269,4.0,8.0,92,0.00,,,0.21,,2013-10-19 15:55:00,
2013-10-19 11:14:00,46.0,42.0,30.03,NNW,329,5.0,10.0,87,0.00,,,0.21,,2013-10-19 16:14:00,
2013-10-19 11:24:00,46.0,42.0,30.03,NW,306,5.0,9.0,86,0.00,,,0.21,,2013-10-19 16:24:00,
2013-10-19 11:43:00,47.0,42.0,30.04,WNW,288,5.0,10.0,84,0.00,,,0.21,,2013-10-19 16:43:00,
2013-10-19 11:53:00,47.0,42.0,30.04,NW,304,3.0,11.0,84,0.00,,,0.21,,2013-10-19 16:53:00,
2013-10-19 12:13:00,47.0,41.0,30.04,WNW,299,5.0,13.0,81,0.00,,,0.21,,2013-10-19 17:13:00,
2013-10-19 12:22:00,48.0,41.0,30.04,NW,326,3.0,8.0,78,0.00,,,0.21,,2013-10-19 17:22:00,
2013-10-19 12:43:00,48.0,40.0,30.03,WNW,292,2.0,10.0,74,0.00,,,0.21,,2013-10-19 17:43:00,
2013-10-19 12:52:00,50.0,42.0,30.03,WNW,299,6.0,10.0,73,0.00,,,0.21,,2013-10-19 17:52:00,
2013-10-19 13:12:00,49.0,40.0,30.03,West,274,5.0,9.0,72,0.00,,,0.21,,2013-10-19 18:12:00,
2013-10-19 13:22:00,50.0,42.0,30.03,West,271,2.0,10.0,74,0.00,,,0.21,,2013-10-19 18:22:00,
2013-10-19 13:42:00,52.0,43.0,30.02,WSW,256,6.0,11.0,70,0.00,,,0.21,,2013-10-19 18:42:00,
2013-10-19 13:52:00,53.0,41.0,30.01,NNW,327,5.0,10.0,63,0.00,,,0.21,,2013-10-19 18:52:00,
2013-10-19 14:12:00,53.0,41.0,30.01,NW,309,2.0,13.0,64,0.00,,,0.21,,2013-10-19 19:12:00,
2013-10-19 14:22:00,53.0,40.0,30.01,West,271,5.0,14.0,61,0.00,,,0.21,,2013-10-19 19:22:00,
2013-10-19 14:42:00,52.0,38.0,30.01,WNW,290,6.0,10.0,59,0.00,,,0.21,,2013-10-19 19:42:00,
2013-10-19 14:52:00,53.0,38.0,30.01,NW,317,5.0,11.0,57,0.00,,,0.21,,2013-10-19 19:52:00,
2013-10-19 15:12:00,53.0,38.0,30.00,WNW,288,3.0,9.0,56,0.00,,,0.21,,2013-10-19 20:12:00,
2013-10-19 15:22:00,54.0,39.0,29.91,NW,311,5.0,10.0,57,0.00,,,0.21,,2013-10-19 20:22:00,
2013-10-19 15:42:00,55.0,38.0,29.91,West,274,1.0,6.0,53,0.00,,,0.21,,2013-10-19 20:42:00,
2013-10-19 15:52:00,55.0,39.0,29.99,NNW,343,3.0,9.0,54,0.00,,,0.21,,2013-10-19 20:52:00,
2013-10-19 16:11:00,55.0,37.0,29.87,NW,326,5.0,10.0,51,0.00,,,0.21,,2013-10-19 21:11:00,
2013-10-19 16:21:00,54.0,37.0,29.95,NW,308,4.0,8.0,53,0.00,,,0.21,,2013-10-19 21:21:00,
2013-10-19 16:44:00,54.0,37.0,30.01,WNW,282,2.0,10.0,52,0.00,,,0.21,,2013-10-19 21:44:00,
2013-10-19 16:54:00,55.0,39.0,29.88,WNW,302,4.0,9.0,54,0.00,,,0.21,,2013-10-19 21:54:00,
2013-10-19 17:14:00,54.0,37.0,29.99,WSW,238,1.0,8.0,53,0.00,,,0.21,,2013-10-19 22:14:00,
2013-10-19 17:24:00,54.0,37.0,30.01,SSW,201,2.0,6.0,52,0.00,,,0.21,,2013-10-19 22:24:00,
2013-10-19 17:43:00,53.0,37.0,30.01,WNW,282,2.0,6.0,54,0.00,,,0.21,,2013-10-19 22:43:00,
2013-10-19 17:53:00,53.0,37.0,30.02,NW,309,0.0,3.0,55,0.00,,,0.21,,2013-10-19 22:53:00,
2013-10-19 18:12:00,53.0,38.0,30.01,WNW,299,0.0,6.0,56,0.00,,,0.21,,2013-10-19 23:12:00,
2013-10-19 18:22:00,52.0,39.0,30.01,SSW,198,0.0,0.0,62,0.00,,,0.21,,2013-10-19 23:22:00,
2013-10-19 18:42:00,50.0,38.0,30.02,SSW,198,0.0,0.0,64,0.00,,,0.21,,2013-10-19 23:42:00,
2013-10-19 18:52:00,49.0,39.0,30.02,SSW,198,0.0,0.0,69,0.00,,,0.21,,2013-10-19 23:52:00,
2013-10-19 19:11:00,48.0,41.0,30.03,SSW,198,0.0,0.0,77,0.00,,,0.21,,2013-10-20 00:11:00,
2013-10-19 19:22:00,46.0,41.0,30.03,SSW,198,0.0,0.0,81,0.00,,,0.21,,2013-10-20 00:22:00,
2013-10-19 19:42:00,45.0,40.0,30.03,SSW,198,0.0,0.0,82,0.00,,,0.21,,2013-10-20 00:42:00,
2013-10-19 19:52:00,44.0,39.0,30.03,SSW,198,0.0,0.0,84,0.00,,,0.21,,2013-10-20 00:52:00,
2013-10-19 20:11:00,44.0,40.0,30.04,SSW,198,0.0,0.0,86,0.00,,,0.21,,2013-10-20 01:11:00,
2013-10-19 20:22:00,44.0,40.0,30.04,SSW,198,0.0,0.0,86,0.00,,,0.21,,2013-10-20 01:22:00,
2013-10-19 20:42:00,44.0,40.0,30.05,SSW,198,0.0,0.0,85,0.00,,,0.21,,2013-10-20 01:42:00,
2013-10-19 20:52:00,43.0,39.0,30.05,SSW,198,0.0,0.0,85,0.00,,,0.21,,2013-10-20 01:52:00,
2013-10-19 21:11:00,44.0,39.0,30.05,SSW,198,0.0,0.0,83,0.00,,,0.21,,2013-10-20 02:11:00,
2013-10-19 21:22:00,44.0,39.0,30.05,SSW,199,0.0,0.0,83,0.00,,,0.21,,2013-10-20 02:22:00,
2013-10-19 21:42:00,44.0,39.0,30.05,SSW,199,0.0,0.0,82,0.00,,,0.21,,2013-10-20 02:42:00,
2013-10-19 21:52:00,44.0,39.0,30.06,SSW,199,0.0,0.0,82,0.00,,,0.21,,2013-10-20 02:52:00,
2013-10-19 22:12:00,44.0,39.0,30.06,SSW,199,0.0,0.0,83,0.00,,,0.21,,2013-10-20 03:12:00,
2013-10-19 22:22:00,44.0,39.0,30.06,SSW,200,0.0,0.0,83,0.00,,,0.21,,2013-10-20 03:22:00,
2013-10-19 22:44:00,43.0,38.0,30.07,SW,215,0.0,0.0,83,0.00,,,0.21,,2013-10-20 03:44:00,
2013-10-19 22:54:00,43.0,39.0,30.07,SSW,213,0.0,0.0,85,0.00,,,0.21,,2013-10-20 03:54:00,
2013-10-19 23:02:00,-999.0,-99.9,30.07,SSW,213,0.0,0.0,-999,-99.99,,,-99.99,,2013-10-20 04:02:00,
2013-10-19 23:14:00,42.0,38.0,30.07,SSW,213,0.0,0.0,85,0.00,,,0.21,,2013-10-20 04:14:00,
2013-10-19 23:24:00,42.0,38.0,30.07,SSW,211,0.0,0.0,86,0.00,,,0.21,,2013-10-20 04:24:00,
2013-10-19 23:44:00,42.0,38.0,30.07,SSW,200,0.0,0.0,86,0.00,,,0.21,,2013-10-20 04:44:00,
2013-10-19 23:54:00,42.0,38.0,30.07,SSW,199,0.0,0.0,87,0.00,,,0.21,,2013-10-20 04:54:00,